Home   Weather   Yuma   Past weeks

Flag for USA Past Weather in Yuma, Arizona, USA — Yesterday and Last 2 Weeks

Now
77 °F

Clear.


Feels Like: 77 °F
Forecast: 67 / 99 °F
Wind: 6 mph from West

Location: Yuma Marine Corps Air Station

Current Time: Apr 23, 2017 at 1:12:43 am

Latest Report: Apr 22, 2017 at 11:57 pm


Visibility: 10 mi

Pressure: 29.76 "Hg

Humidity: 24%

Dew Point: 37 °F

Location of YumaLocation

Past Weather in Yuma — Graph

°F

Yuma Temperature Yesterday

Maximum temperature yesterday: 98 °F (at 2:57 pm)
Minimum temperature yesterday: 66 °F (at 4:57 am)
Average temperature yesterday: 84 °F

High & Low Weather Summary for the Past Weeks

 TemperatureHumidityPressure
High98 °F (Apr 22, 2:57 pm)59% (Apr 20, 5:57 am)30.02 "Hg (Apr 20, 5:57 am)
Low57 °F (Apr 9, 5:57 am)5% (Apr 10, 4:57 pm)29.72 "Hg (Apr 22, 6:57 pm)
Average76 °F24%29.88 "Hg
* Reported Apr 7 10:57 pm — Apr 22 10:57 pm, Yuma, Weather by CustomWeather, © 2017

Note: Actual official high and low records may vary slightly from our data, if they occured in-between our weather recording intervals... More about our weather records

Advertising

Yuma Weather History for the Previous 24 Hours

Scroll right to see more
 ConditionsComfort  
Time TempWeatherWind HumidityBarometerVisibility
10:57 pm
Sat, Apr 22
79 °FClear.6 mph23%29.75 "Hg10 mi
9:57 pm81 °FClear.6 mph21%29.76 "Hg10 mi
8:57 pm85 °FClear.7 mph17%29.75 "Hg10 mi
7:57 pm89 °FClear.3 mph13%29.73 "Hg10 mi
6:57 pm95 °FSunny.3 mph7%29.72 "Hg10 mi
5:57 pm97 °FSunny.6 mph7%29.73 "Hg10 mi
4:57 pm98 °FSunny.7 mph6%29.74 "Hg10 mi
3:57 pm98 °FSunny.7 mph6%29.75 "Hg10 mi
2:57 pm98 °FSunny.10 mph6%29.77 "Hg10 mi
1:57 pm97 °FSunny.8 mph7%29.79 "Hg10 mi
12:57 pm94 °FSunny.12 mph7%29.81 "Hg10 mi
11:57 am92 °FSunny.9 mph7%29.84 "Hg10 mi
10:57 am90 °FSunny.12 mph9%29.86 "Hg10 mi
9:57 am87 °FSunny.13 mph9%29.86 "Hg10 mi
8:57 am83 °FSunny.14 mph11%29.85 "Hg10 mi
7:57 am78 °FSunny.9 mph13%29.85 "Hg10 mi
6:57 am68 °FSunny.No wind30%29.84 "Hg10 mi
5:57 am67 °FSunny.3 mph27%29.83 "Hg10 mi
4:57 am66 °FMild.7 mph28%29.81 "Hg10 mi
3:57 am71 °FClear.No wind19%29.81 "Hg10 mi
2:57 am74 °FClear.8 mph16%29.81 "Hg10 mi
1:57 am76 °FClear.7 mph14%29.82 "Hg10 mi
Weather by CustomWeather, © 2017

See weather overviewHow to use our weather pages